Location: Winthrop
(48.4780°N, 120.1850°W)
Time: 15:45:06
(UTC-07:00)

Vanguard 3 - Pass Details

Date: 05 February 2023
Orbit: 508 x 3249 km, 33.3° (Epoch: 22 March)

Event Time Altitude Azimuth Distance (km) Brightness Sun altitude
Rises 23:35:11 0° 269° (W) 5,593 11.5 -56.2°
Reaches altitude 10° 23:39:15 10° 258° (WSW) 4,969 11.1 -56.4°
Enters shadow 23:39:36 11° 256° (WSW) 4,924 11.1 -56.4°
